TimeMST,TemperatureF,Dew PointF,Humidity,Sea Level PressureIn,VisibilityMPH,Wind Direction,Wind SpeedMPH,Gust SpeedMPH,PrecipitationIn,Events,Conditions,WindDirDegrees,DateUTC
12:51 AM,37.0,34.0,89,30.29,10.0,Calm,Calm,-,N/A,,Mostly Cloudy,0,2012-11-04 06:51:00
1:51 AM,37.0,35.1,93,30.30,10.0,Calm,Calm,-,N/A,,Mostly Cloudy,0,2012-11-04 07:51:00
1:51 AM,37.9,35.1,89,30.30,10.0,Calm,Calm,-,N/A,,Overcast,0,2012-11-04 08:51:00
2:51 AM,37.0,35.1,93,30.30,10.0,Calm,Calm,-,0.00,Rain,Light Rain,0,2012-11-04 09:51:00
3:51 AM,37.0,35.1,93,30.29,10.0,Calm,Calm,-,0.00,,Mostly Cloudy,0,2012-11-04 10:51:00
4:51 AM,37.0,35.1,93,30.30,10.0,Calm,Calm,-,N/A,,Overcast,0,2012-11-04 11:51:00
5:51 AM,36.0,35.1,97,30.33,8.0,Calm,Calm,-,N/A,,Overcast,0,2012-11-04 12:51:00
6:51 AM,34.0,33.1,96,30.34,10.0,Calm,Calm,-,N/A,,Mostly Cloudy,0,2012-11-04 13:51:00
7:51 AM,33.1,32.0,96,30.39,10.0,East,3.5,-,N/A,,Scattered Clouds,80,2012-11-04 14:51:00
8:51 AM,37.0,34.0,89,30.41,10.0,Calm,Calm,-,N/A,,Partly Cloudy,0,2012-11-04 15:51:00
9:51 AM,42.1,37.0,82,30.42,10.0,Calm,Calm,-,N/A,,Overcast,0,2012-11-04 16:51:00
10:51 AM,45.0,37.9,76,30.42,10.0,Calm,Calm,-,N/A,,Overcast,0,2012-11-04 17:51:00
11:51 AM,50.0,37.0,61,30.40,10.0,Calm,Calm,-,N/A,,Overcast,0,2012-11-04 18:51:00
12:51 PM,53.1,36.0,52,30.38,10.0,Calm,Calm,-,N/A,,Overcast,0,2012-11-04 19:51:00
1:51 PM,55.0,36.0,49,30.36,8.0,South,3.5,-,N/A,,Clear,180,2012-11-04 20:51:00
2:51 PM,55.9,36.0,47,30.36,10.0,SW,5.8,-,N/A,,Clear,220,2012-11-04 21:51:00
3:51 PM,55.9,37.0,49,30.37,10.0,Variable,5.8,-,N/A,,Clear,0,2012-11-04 22:51:00
4:51 PM,51.1,36.0,56,30.40,10.0,WNW,6.9,-,N/A,,Clear,300,2012-11-04 23:51:00
5:51 PM,50.0,36.0,59,30.43,10.0,Calm,Calm,-,N/A,,Clear,0,2012-11-05 00:51:00
6:51 PM,46.0,37.0,71,30.46,10.0,Calm,Calm,-,N/A,,Clear,0,2012-11-05 01:51:00
7:51 PM,41.0,36.0,82,30.48,9.0,Calm,Calm,-,N/A,,Clear,0,2012-11-05 02:51:00
8:51 PM,37.9,35.1,89,30.48,10.0,Calm,Calm,-,N/A,,Clear,0,2012-11-05 03:51:00
9:51 PM,36.0,34.0,93,30.46,9.0,Calm,Calm,-,N/A,,Clear,0,2012-11-05 04:51:00
10:51 PM,36.0,34.0,93,30.46,10.0,Calm,Calm,-,N/A,,Clear,0,2012-11-05 05:51:00